Date,TemperatureHighF,TemperatureAvgF,TemperatureLowF,DewpointHighF,DewpointAvgF,DewpointLowF,HumidityHigh,HumidityAvg,HumidityLow,PressureMaxIn,PressureMinIn,WindSpeedMaxMPH,WindSpeedAvgMPH,GustSpeedMaxMPH,PrecipitationSumIn
2013-3-1,47.9,42.2,36.6,35.9,32.1,29.1,81,67,56,29.77,29.64,4,2,6,0.00
2013-3-2,45.2,38.0,33.5,31.9,27.2,22.2,78,65,50,29.78,29.71,4,2,10,0.00
2013-3-3,43.6,35.6,30.1,25.8,23.5,20.3,77,62,45,29.80,29.70,4,2,7,0.00
2013-3-4,44.1,36.2,30.9,27.5,22.7,20.1,74,58,42,29.94,29.80,5,2,9,0.00
2013-3-5,46.1,38.5,30.9,36.2,26.7,21.3,93,64,38,30.00,29.69,5,2,10,0.05
2013-3-6,46.2,40.0,35.3,45.7,39.1,34.2,100,97,93,29.74,29.21,11,5,19,1.98
2013-3-7,48.8,42.1,36.9,35.3,31.2,26.9,94,66,52,30.00,29.74,6,4,11,0.01
2013-3-8,46.1,41.5,36.5,33.3,28.6,24.9,73,60,52,30.10,29.97,6,3,7,0.00
2013-3-9,54.5,42.6,29.8,35.9,29.7,25.8,92,62,38,30.23,30.09,4,2,7,0.00
2013-3-10,53.3,39.7,25.4,42.6,34.6,24.2,100,83,53,30.27,30.20,5,1,11,0.00
2013-3-11,60.2,49.5,37.2,51.9,45.5,36.8,100,87,72,30.21,29.96,7,3,19,0.01
2013-3-12,59.0,53.1,46.0,59.0,50.6,39.0,100,92,76,29.97,29.65,10,5,27,0.40
2013-3-13,54.1,44.6,34.6,38.5,32.3,23.7,89,63,39,29.94,29.81,5,2,15,0.00
2013-3-14,47.6,40.1,33.5,25.1,21.9,19.2,58,48,36,30.05,29.93,6,3,21,0.00
2013-3-15,52.5,43.6,29.7,38.1,27.1,18.0,80,54,27,30.03,29.74,6,2,17,0.00
2013-3-16,57.2,49.5,39.9,53.6,43.1,34.9,97,80,50,29.77,29.55,5,2,17,0.33
2013-3-17,42.8,38.0,34.0,41.2,36.0,32.5,96,92,87,30.18,29.77,2,1,11,0.06
2013-3-18,48.6,39.6,32.7,48.3,38.8,31.7,100,97,94,30.20,29.78,5,2,16,0.60
2013-3-19,55.7,44.9,39.1,43.4,40.9,25.1,100,88,45,29.82,29.67,4,1,15,0.00
2013-3-20,53.9,44.6,29.4,35.2,24.2,15.5,88,48,24,29.95,29.71,5,2,15,0.00
2013-3-21,42.8,36.9,31.8,35.2,25.2,11.6,90,64,42,29.80,29.60,4,3,17,0.00
2013-3-22,47.4,36.0,27.5,23.9,19.2,11.8,80,52,35,29.90,29.80,5,2,16,0.00
2013-3-23,53.1,37.7,23.9,30.6,26.5,21.1,91,68,36,29.95,29.84,3,1,15,0.00
2013-3-24,42.1,35.5,28.7,32.8,28.3,23.8,95,76,58,29.91,29.53,5,2,14,0.04
2013-3-25,40.2,37.3,34.3,39.9,36.1,32.8,99,95,90,29.61,29.35,4,2,14,0.46
2013-3-26,50.7,41.4,34.3,38.5,35.2,30.3,98,80,56,29.89,29.61,4,1,15,0.00
2013-3-27,52.8,44.1,37.5,36.5,32.5,29.9,81,65,42,30.02,29.89,5,2,14,0.00
2013-3-28,51.9,43.7,37.0,35.2,32.1,29.5,79,64,49,30.12,30.00,5,2,19,0.00
2013-3-29,56.0,44.7,34.9,36.7,33.0,29.2,89,66,40,30.16,30.07,5,1,19,0.00
2013-3-30,62.0,46.8,34.0,40.2,33.6,26.9,92,66,27,30.14,30.05,3,1,10,0.00
2013-3-31,58.4,50.7,40.9,53.6,46.3,36.6,100,85,75,30.09,29.69,7,2,15,0.27